| time (UTC) | temp F | wind direction | speed knots | gust knots | rain 1hr in | rain 24hr in | rain mn in | humidity % | barometer mb |
| 20260509024021 | 35 | 0.0 | 0.0 | 0.00 | 0.00 | 0.00 | 80 | 1026.6 | |
| 20260509023016 | 35 | 0.0 | 0.0 | 0.00 | 0.00 | 0.00 | 78 | 1026.7 | |
| 20260509022051 | 35 | 0.0 | 0.0 | 0.00 | 0.00 | 0.00 | 79 | 1026.7 | |
| 20260509021026 | 36 | 0.0 | 0.0 | 0.00 | 0.00 | 0.00 | 75 | 1026.8 | |
| 20260509020022 | 37 | 176 | 0.0 | 0.9 | 0.00 | 0.00 | 0.00 | 73 | 1026.8 |
| 20260509015016 | 37 | 0.0 | 0.0 | 0.00 | 0.00 | 0.00 | 73 | 1026.8 | |
| 20260509014031 | 37 | 0.0 | 0.0 | 0.00 | 0.00 | 0.00 | 75 | 1026.9 | |
| 20260509013026 | 38 | 0.0 | 0.0 | 0.00 | 0.00 | 0.00 | 75 | 1026.9 | |
| 20260509012022 | 39 | 179 | 0.0 | 0.9 | 0.00 | 0.00 | 0.00 | 70 | 1026.9 |
| 20260509011017 | 39 | 171 | 0.0 | 0.9 | 0.00 | 0.00 | 0.00 | 67 | 1026.9 |
| 20260509010033 | 38 | 146 | 0.0 | 1.7 | 0.00 | 0.00 | 0.00 | 67 | 1026.9 |
| 20260509005027 | 39 | 0.0 | 0.0 | 0.00 | 0.00 | 0.00 | 65 | 1027.0 | |
| 20260509004023 | 40 | 169 | 0.0 | 0.9 | 0.00 | 0.00 | 0.00 | 61 | 1027.0 |
| 20260509003018 | 41 | 171 | 0.0 | 0.9 | 0.00 | 0.00 | 0.00 | 58 | 1027.0 |
| 20260509002033 | 41 | 0.0 | 0.0 | 0.00 | 0.00 | 0.00 | 56 | 1027.0 | |
| 20260509001029 | 40 | 0.0 | 0.0 | 0.00 | 0.00 | 0.00 | 60 | 1027.0 | |
| 20260509000023 | 40 | 177 | 0.0 | 0.9 | 0.00 | 0.00 | 0.00 | 61 | 1027.1 |
| 20260508235019 | 41 | 176 | 0.0 | 0.9 | 0.00 | 0.00 | 0.00 | 59 | 1027.0 |
| 20260508234034 | 41 | 0.0 | 0.0 | 0.00 | 0.00 | 0.00 | 60 | 1027.1 | |
| 20260508233030 | 42 | 0.0 | 0.0 | 0.00 | 0.00 | 0.00 | 57 | 1027.1 | |
| 20260508232045 | 43 | 170 | 0.0 | 0.9 | 0.00 | 0.00 | 0.00 | 56 | 1026.9 |
| 20260508231020 | 43 | 172 | 0.0 | 0.9 | 0.00 | 0.00 | 0.00 | 55 | 1026.9 |
| 20260508230017 | 44 | 164 | 0.0 | 0.9 | 0.00 | 0.00 | 0.00 | 52 | 1026.9 |
| 20260508225052 | 45 | 166 | 0.0 | 0.9 | 0.00 | 0.00 | 0.00 | 52 | 1026.7 |
| 20260508224027 | 45 | 173 | 0.0 | 0.9 | 0.00 | 0.00 | 0.00 | 51 | 1026.9 |
| 20260508223022 | 45 | 185 | 0.0 | 0.9 | 0.00 | 0.00 | 0.00 | 50 | 1026.9 |
| 20260508222017 | 46 | 186 | 0.0 | 1.7 | 0.00 | 0.00 | 0.00 | 50 | 1026.8 |
| 20260508221032 | 46 | 196 | 0.0 | 2.6 | 0.00 | 0.00 | 0.00 | 50 | 1026.8 |
| 20260508220028 | 47 | 179 | 0.9 | 5.2 | 0.00 | 0.00 | 0.00 | 49 | 1026.7 |
| 20260508215044 | 47 | 185 | 0.9 | 2.6 | 0.00 | 0.00 | 0.00 | 49 | 1026.8 |
| 20260508214018 | 47 | 183 | 0.9 | 2.6 | 0.00 | 0.00 | 0.00 | 49 | 1026.6 |
| 20260508213034 | 48 | 182 | 0.0 | 1.7 | 0.00 | 0.00 | 0.00 | 48 | 1026.6 |
| 20260508212029 | 48 | 184 | 0.9 | 3.5 | 0.00 | 0.00 | 0.00 | 47 | 1026.4 |
| 20260508211025 | 49 | 193 | 0.9 | 1.7 | 0.00 | 0.00 | 0.00 | 48 | 1026.4 |
| 20260508210020 | 49 | 193 | 0.9 | 3.5 | 0.00 | 0.00 | 0.00 | 46 | 1026.3 |
| 20260508205023 | 50 | 186 | 0.9 | 3.5 | 0.00 | 0.00 | 0.00 | 46 | 1026.2 |
| 20260508204031 | 50 | 172 | 0.9 | 6.1 | 0.00 | 0.00 | 0.00 | 46 | 1026.2 |
| 20260508203027 | 50 | 190 | 1.7 | 6.1 | 0.00 | 0.00 | 0.00 | 45 | 1026.1 |
| 20260508202022 | 51 | 194 | 0.9 | 2.6 | 0.00 | 0.00 | 0.00 | 46 | 1025.9 |
| 20260508201016 | 51 | 185 | 0.9 | 3.5 | 0.00 | 0.00 | 0.00 | 45 | 1025.9 |
| 20260508200032 | 52 | 177 | 1.7 | 5.2 | 0.00 | 0.00 | 0.00 | 44 | 1025.7 |
| 20260508195027 | 52 | 185 | 1.7 | 3.5 | 0.00 | 0.00 | 0.00 | 43 | 1025.7 |
| 20260508194042 | 53 | 186 | 1.7 | 5.2 | 0.00 | 0.00 | 0.00 | 43 | 1025.4 |
| 20260508193017 | 53 | 188 | 1.7 | 3.5 | 0.00 | 0.00 | 0.00 | 43 | 1025.3 |
| 20260508192032 | 53 | 196 | 1.7 | 5.2 | 0.00 | 0.00 | 0.00 | 42 | 1025.2 |
| 20260508191048 | 53 | 196 | 0.9 | 3.5 | 0.00 | 0.00 | 0.00 | 43 | 1025.1 |
| 20260508190022 | 54 | 175 | 0.9 | 2.6 | 0.00 | 0.00 | 0.00 | 42 | 1025.0 |
| 20260508185039 | 54 | 185 | 0.9 | 2.6 | 0.00 | 0.00 | 0.00 | 42 | 1024.9 |
| 20260508184033 | 55 | 198 | 0.9 | 3.5 | 0.00 | 0.00 | 0.00 | 40 | 1024.9 |
| 20260508183028 | 56 | 190 | 1.7 | 2.6 | 0.00 | 0.00 | 0.00 | 39 | 1024.8 |
| 20260508182023 | 57 | 185 | 0.9 | 5.2 | 0.00 | 0.00 | 0.00 | 39 | 1024.7 |
| 20260508181018 | 57 | 197 | 2.6 | 6.1 | 0.00 | 0.00 | 0.00 | 36 | 1024.7 |
| 20260508180033 | 58 | 195 | 1.7 | 3.5 | 0.00 | 0.00 | 0.00 | 38 | 1024.5 |
| 20260508175048 | 58 | 179 | 1.7 | 7.0 | 0.00 | 0.00 | 0.00 | 37 | 1024.3 |
| 20260508174024 | 58 | 185 | 1.7 | 6.1 | 0.00 | 0.00 | 0.00 | 37 | 1024.3 |
| 20260508173018 | 59 | 192 | 1.7 | 6.1 | 0.00 | 0.00 | 0.00 | 36 | 1024.2 |
| 20260508172034 | 59 | 185 | 3.5 | 7.0 | 0.00 | 0.00 | 0.00 | 35 | 1024.1 |
| 20260508171030 | 60 | 185 | 1.7 | 6.1 | 0.00 | 0.00 | 0.00 | 35 | 1024.0 |
| 20260508170025 | 61 | 195 | 3.5 | 13.0 | 0.00 | 0.00 | 0.00 | 34 | 1024.1 |
| 20260508165020 | 60 | 196 | 1.7 | 6.1 | 0.00 | 0.00 | 0.00 | 35 | 1023.9 |
| 20260508164035 | 61 | 183 | 0.9 | 2.6 | 0.00 | 0.00 | 0.00 | 34 | 1023.9 |
| 20260508163030 | 61 | 178 | 2.6 | 7.0 | 0.00 | 0.00 | 0.00 | 34 | 1024.0 |
| 20260508162025 | 62 | 180 | 1.7 | 5.2 | 0.00 | 0.00 | 0.00 | 33 | 1023.9 |
| 20260508161020 | 61 | 188 | 1.7 | 5.2 | 0.00 | 0.00 | 0.00 | 33 | 1024.0 |
| 20260508160015 | 63 | 193 | 3.5 | 8.7 | 0.00 | 0.00 | 0.00 | 32 | 1024.0 |
| 20260508155031 | 61 | 191 | 1.7 | 6.1 | 0.00 | 0.00 | 0.00 | 33 | 1024.0 |
| 20260508154026 | 61 | 184 | 1.7 | 6.1 | 0.00 | 0.00 | 0.00 | 34 | 1024.0 |
| 20260508153021 | 62 | 198 | 3.5 | 7.0 | 0.00 | 0.00 | 0.00 | 32 | 1024.0 |
| 20260508152016 | 61 | 184 | 2.6 | 5.2 | 0.00 | 0.00 | 0.00 | 32 | 1024.2 |
| 20260508151033 | 61 | 207 | 2.6 | 6.1 | 0.00 | 0.00 | 0.00 | 32 | 1024.1 |
| 20260508150027 | 62 | 212 | 2.6 | 7.8 | 0.00 | 0.00 | 0.00 | 32 | 1024.1 |
| 20260508145022 | 63 | 187 | 2.6 | 6.1 | 0.00 | 0.00 | 0.00 | 32 | 1024.1 |
| 20260508144017 | 63 | 206 | 3.5 | 6.1 | 0.00 | 0.00 | 0.00 | 32 | 1024.3 |
| 20260508143033 | 62 | 209 | 2.6 | 7.0 | 0.00 | 0.00 | 0.00 | 32 | 1024.2 |
| 20260508142029 | 63 | 197 | 2.6 | 6.1 | 0.00 | 0.00 | 0.00 | 33 | 1024.4 |
| 20260508141023 | 63 | 209 | 2.6 | 7.8 | 0.00 | 0.00 | 0.00 | 32 | 1024.4 |
| 20260508140019 | 63 | 200 | 1.7 | 7.0 | 0.00 | 0.00 | 0.00 | 33 | 1024.4 |
| 20260508135054 | 61 | 195 | 3.5 | 7.8 | 0.00 | 0.00 | 0.00 | 33 | 1024.3 |
| 20260508134030 | 62 | 192 | 2.6 | 5.2 | 0.00 | 0.00 | 0.00 | 33 | 1024.5 |
| 20260508133025 | 63 | 202 | 3.5 | 7.8 | 0.00 | 0.00 | 0.00 | 33 | 1024.5 |
| 20260508132020 | 63 | 199 | 2.6 | 5.2 | 0.00 | 0.00 | 0.00 | 32 | 1024.6 |
| 20260508131035 | 62 | 196 | 3.5 | 7.8 | 0.00 | 0.00 | 0.00 | 32 | 1024.7 |
| 20260508130030 | 64 | 177 | 1.7 | 5.2 | 0.00 | 0.00 | 0.00 | 31 | 1024.6 |
| 20260508125105 | 63 | 173 | 2.6 | 6.1 | 0.00 | 0.00 | 0.00 | 32 | 1024.8 |
| 20260508124020 | 63 | 185 | 2.6 | 5.2 | 0.00 | 0.00 | 0.00 | 31 | 1024.8 |
| 20260508123016 | 63 | 204 | 3.5 | 9.6 | 0.00 | 0.00 | 0.00 | 31 | 1024.9 |
| 20260508122032 | 63 | 196 | 2.6 | 5.2 | 0.00 | 0.00 | 0.00 | 33 | 1024.8 |
| 20260508121027 | 61 | 206 | 2.6 | 7.0 | 0.00 | 0.00 | 0.00 | 33 | 1025.0 |
| 20260508120022 | 62 | 203 | 3.5 | 6.1 | 0.00 | 0.00 | 0.00 | 33 | 1024.9 |
| 20260508115037 | 62 | 181 | 2.6 | 7.0 | 0.00 | 0.00 | 0.00 | 33 | 1025.0 |
| 20260508114053 | 61 | 194 | 2.6 | 5.2 | 0.00 | 0.00 | 0.00 | 33 | 1024.9 |
| 20260508113027 | 61 | 177 | 2.6 | 7.0 | 0.00 | 0.00 | 0.00 | 33 | 1025.1 |
| 20260508112042 | 62 | 177 | 2.6 | 7.8 | 0.00 | 0.00 | 0.00 | 34 | 1025.1 |
| 20260508111018 | 61 | 173 | 1.7 | 5.2 | 0.00 | 0.00 | 0.00 | 33 | 1025.3 |
| 20260508110034 | 62 | 215 | 3.5 | 7.0 | 0.00 | 0.00 | 0.00 | 31 | 1025.2 |
| 20260508105029 | 61 | 182 | 3.5 | 8.7 | 0.00 | 0.00 | 0.00 | 31 | 1025.3 |
| 20260508104024 | 61 | 162 | 2.6 | 6.1 | 0.00 | 0.00 | 0.00 | 30 | 1025.3 |
| 20260508103140 | 60 | 198 | 2.6 | 7.0 | 0.00 | 0.00 | 0.00 | 32 | 1025.3 |
| 20260508102034 | 60 | 212 | 2.6 | 7.0 | 0.00 | 0.00 | 0.00 | 32 | 1025.4 |
| 20260508101110 | 59 | 205 | 3.5 | 7.8 | 0.00 | 0.00 | 0.00 | 32 | 1025.5 |
| 20260508100026 | 59 | 212 | 3.5 | 7.8 | 0.00 | 0.00 | 0.00 | 32 | 1025.5 |
| 20260508095041 | 58 | 214 | 3.5 | 7.0 | 0.00 | 0.00 | 0.00 | 32 | 1025.6 |
| 20260508094036 | 60 | 179 | 1.7 | 3.5 | 0.00 | 0.00 | 0.00 | 31 | 1025.7 |
| 20260508093032 | 59 | 203 | 2.6 | 7.0 | 0.00 | 0.00 | 0.00 | 31 | 1025.7 |
| 20260508092046 | 59 | 193 | 2.6 | 6.1 | 0.00 | 0.00 | 0.00 | 31 | 1025.8 |
| 20260508091021 | 58 | 190 | 1.7 | 6.1 | 0.00 | 0.00 | 0.00 | 29 | 1025.8 |
| 20260508090037 | 57 | 190 | 3.5 | 7.0 | 0.00 | 0.00 | 0.00 | 28 | 1025.7 |
| 20260508085112 | 56 | 198 | 3.5 | 8.7 | 0.00 | 0.00 | 0.00 | 29 | 1025.8 |
| 20260508084028 | 57 | 202 | 2.6 | 5.2 | 0.00 | 0.00 | 0.00 | 29 | 1025.9 |
| 20260508083023 | 56 | 187 | 2.6 | 5.2 | 0.00 | 0.00 | 0.00 | 29 | 1025.9 |
| 20260508082038 | 56 | 189 | 3.5 | 7.0 | 0.00 | 0.00 | 0.00 | 29 | 1025.9 |
| 20260508081034 | 55 | 209 | 2.6 | 6.1 | 0.00 | 0.00 | 0.00 | 30 | 1026.0 |
| 20260508080030 | 55 | 198 | 1.7 | 3.5 | 0.00 | 0.00 | 0.00 | 33 | 1025.9 |
| 20260508075025 | 54 | 195 | 1.7 | 5.2 | 0.00 | 0.00 | 0.00 | 32 | 1025.9 |
| 20260508074020 | 53 | 207 | 2.6 | 5.2 | 0.00 | 0.00 | 0.00 | 31 | 1025.9 |
| 20260508073015 | 53 | 200 | 2.6 | 7.0 | 0.00 | 0.00 | 0.00 | 32 | 1025.9 |
| 20260508072031 | 52 | 187 | 1.7 | 5.2 | 0.00 | 0.00 | 0.00 | 36 | 1025.7 |
| 20260508071025 | 51 | 192 | 1.7 | 6.1 | 0.00 | 0.00 | 0.00 | 38 | 1025.8 |
| 20260508070021 | 51 | 157 | 2.6 | 6.1 | 0.00 | 0.00 | 0.00 | 39 | 1025.9 |
| 20260508065017 | 51 | 197 | 2.6 | 5.2 | 0.00 | 0.00 | 0.00 | 40 | 1025.8 |
| 20260508064052 | 49 | 167 | 0.9 | 1.7 | 0.00 | 0.00 | 0.00 | 59 | 1025.7 |
| 20260508063027 | 47 | 170 | 0.0 | 1.7 | 0.00 | 0.00 | 0.00 | 64 | 1025.7 |
| 20260508062022 | 45 | 170 | 0.0 | 0.9 | 0.00 | 0.00 | 0.00 | 69 | 1025.8 |
| 20260508061017 | 44 | 165 | 0.0 | 0.9 | 0.00 | 0.00 | 0.00 | 69 | 1025.7 |
| 20260508060033 | 43 | 159 | 0.0 | 1.7 | 0.00 | 0.00 | 0.00 | 71 | 1025.7 |
| 20260508055028 | 43 | 178 | 0.0 | 0.9 | 0.00 | 0.00 | 0.00 | 72 | 1025.6 |
| 20260508054023 | 40 | 204 | 0.9 | 1.7 | 0.00 | 0.00 | 0.00 | 76 | 1025.6 |
| 20260508053038 | 41 | 0.0 | 0.0 | 0.00 | 0.00 | 0.00 | 74 | 1025.4 | |
| 20260508052033 | 39 | 0.0 | 0.0 | 0.00 | 0.00 | 0.00 | 77 | 1025.5 | |
| 20260508051049 | 36 | 195 | 0.0 | 0.9 | 0.00 | 0.00 | 0.00 | 81 | 1025.4 |
| 20260508050025 | 35 | 0.0 | 0.0 | 0.00 | 0.00 | 0.00 | 82 | 1025.2 | |
| 20260508045020 | 36 | 0.0 | 0.0 | 0.00 | 0.00 | 0.00 | 80 | 1025.1 | |
| 20260508044020 | 33 | 0.0 | 0.0 | 0.00 | 0.00 | 0.00 | 88 | 1025.1 | |
| 20260508043031 | 31 | 202 | 0.0 | 0.9 | 0.00 | 0.00 | 0.00 | 89 | 1025.0 |
| 20260508042027 | 32 | 0.0 | 0.0 | 0.00 | 0.00 | 0.00 | 87 | 1024.8 | |
| 20260508041023 | 33 | 0.0 | 0.0 | 0.00 | 0.00 | 0.00 | 86 | 1024.9 | |
| 20260508040017 | 31 | 0.0 | 0.0 | 0.00 | 0.00 | 0.00 | 92 | 1024.9 | |
| 20260508035034 | 29 | 0.0 | 0.0 | 0.00 | 0.00 | 0.00 | 97 | 1024.9 | |
| 20260508034028 | 26 | 0.0 | 0.0 | 0.00 | 0.00 | 0.00 | 97 | 1024.8 | |
| 20260508033044 | 26 | 0.0 | 0.0 | 0.00 | 0.00 | 0.00 | 97 | 1024.7 | |
| 20260508032020 | 26 | 0.0 | 0.0 | 0.00 | 0.00 | 0.00 | 97 | 1024.8 | |
| 20260508031016 | 25 | 0.0 | 0.0 | 0.00 | 0.00 | 0.00 | 97 | 1024.7 | |
| 20260508030031 | 25 | 0.0 | 0.0 | 0.00 | 0.00 | 0.00 | 97 | 1024.7 | |
| 20260508025027 | 25 | 0.0 | 0.0 | 0.00 | 0.00 | 0.00 | 96 | 1024.5 |